Regional Weather Roundup
Issued by NWS Sioux Falls, SD

Home | Current Version | Previous Version | Text Only | Print | Product List | Glossary On
Versions: 1 2 3 4 5 6 7 8 9 10 11 12 13 14 15 16 17 18 19 20 21 22 23 24 25 26 27 28 29 30 31 32 33 34 35 36 37 38 39 40 41 42 43 44 45 46 47 48 49 50
000
ASUS43 KFSD 270002
RWRFSD

WEATHER ROUNDUP FOR SE SOUTH DAKOTA/SW MINNESOTA/NW IOWA
NATIONAL WEATHER SERVICE SIOUX FALLS SD
700 PM CDT THU MAY 26 2016

NOTE: "FAIR" INDICATES FEW OR NO CLOUDS BELOW 12,000 FEET WITH NO
SIGNIFICANT WEATHER AND OR OBSTRUCTIONS TO VISIBILITY.


SDZ038>040-050-052>070-270100-
SOUTHEAST SOUTH DAKOTA

CITY           SKY/WX    TMP DP  RH WIND       PRES   REMARKS
BROOKINGS      CLOUDY    74  52  46 S8        29.82R
CHAMBERLAIN    NOT AVBL
HURON          SUNNY     74  54  49 SE9       29.78R
6HR MIN TEMP:  71; 6HR MAX TEMP:  78;

MADISON        FAIR      72  52  49 SE13      29.84R
MITCHELL       CLOUDY    74  56  53 SE14      29.81R
6HR MIN TEMP:  72; 6HR MAX TEMP:  77;

SIOUX FALLS    CLOUDY    71  56  58 E7        29.83R
6HR MIN TEMP:  71; 6HR MAX TEMP:  76;

WINNER         FAIR      77  53  43 SE7       29.77S
YANKTON        CLOUDY    72  61  68 NE5       29.80R
$$

MNZ071-072-080-081-089-090-097-098-270100-
SOUTHWEST MINNESOTA

CITY           SKY/WX    TMP DP  RH WIND       PRES   REMARKS
FAIRMONT       CLOUDY    73  52  46 S5        29.85R
JACKSON        CLOUDY    73  52  46 S3        29.86S
LUVERNE        CLOUDY    72  50  46 SE9       29.85R
MARSHALL       PTSUNNY   78  50  37 SE3       29.82R
6HR MIN TEMP:  76; 6HR MAX TEMP:  80;

MONTEVIDEO     SUNNY     81  48  32 CALM      29.81R
PIPESTONE      CLOUDY    73  46  38 SE6       29.85R
REDWOOD FALLS  PTSUNNY   79  48  33 SW9       29.80R
TRACY          CLOUDY    76  50  40 S7        29.84R
WINDOM         CLOUDY    73  52  46 CALM      29.86R
WORTHINGTON    CLOUDY    72  58  61 E5        29.86R
$$

IAZ001>003-012>014-020>022-031-032-NEZ013-014-SDZ071-270100-
NORTHWEST IOWA

CITY           SKY/WX    TMP DP  RH WIND       PRES   REMARKS
ESTHERVILLE    CLOUDY    70  61  73 SE5       29.85R
SIOUX CITY     CLOUDY    73  59  61 MISG      29.80F
6HR MIN TEMP:  73; 6HR MAX TEMP:  82;

SPENCER        CLOUDY    69  59  70 SE8       29.84S
6HR MIN TEMP:  69; 6HR MAX TEMP:  79;

STORM LAKE     CLOUDY    72  61  68 SE9       29.84S
$$

ABBREVIATIONS USED IN REMARKS
   TC - TEMPERATURE IN CELSIUS
  WCI - WIND CHILL INDEX
   HX - HEAT INDEX
  VSB - VISIBILITY




USA.gov is the U.S. government's official web portal to all federal, state and local government web resources and services.